DW2258 Weather Reports


Display with metric or nautical units.
time (UTC)temp
F
wind
direction
speed
MPH
gust
MPH
rain 1hr
in
rain 24hr
in
rain mn
in
humidity
%
barometer
mb
20260508110140 44 306 7.0 13.0 0.00 0.00 0.00 75 1006.4
20260508104701 44 317 7.0 13.0 0.00 0.00 0.00 75 1006.1
20260508103139 43 311 7.0 14.0 0.00 0.00 0.00 75 1005.8
20260508101644 43 301 6.0 12.0 0.00 0.00 0.00 75 1005.6
20260508100205 43 280 6.0 10.0 0.00 0.00 0.00 75 1005.5
20260508094648 42 309 5.0 9.0 0.00 0.00 0.00 76 1005.4
20260508093148 42 312 5.0 9.0 0.00 0.00 0.00 76 1005.4
20260508091631 42 330 5.0 10.0 0.00 0.00 0.00 77 1005.4
20260508090130 41 299 6.0 8.0 0.00 0.00 0.00 76 1005.3
20260508084635 41 347 2.0 4.0 0.00 0.00 0.00 76 1005.3
20260508083135 42 342 3.0 8.0 0.00 0.00 0.00 75 1005.2
20260508081634 42 297 6.0 8.0 0.00 0.00 0.00 75 1005.0
20260508080135 43 333 4.0 6.0 0.00 0.00 0.00 73 1005.1
20260508074635 43 343 3.0 5.0 0.00 0.01 0.00 73 1005.0
20260508073140 44 300 2.0 4.0 0.00 0.01 0.00 72 1005.0
20260508071642 44 310 4.0 5.0 0.00 0.01 0.00 71 1005.0
20260508070202 44 295 3.0 6.0 0.00 0.01 0.00 71 1005.0
20260508064643 44 289 5.0 7.0 0.00 0.05 0.00 70 1005.1
20260508063202 44 305 3.0 5.0 0.00 0.05 0.00 70 1005.0
20260508061644 44 271 1.0 3.0 0.00 0.05 0.00 73 1005.0
20260508060146 45 301 3.0 4.0 0.00 0.05 0.00 72 1005.1
20260508054647 44 302 1.0 4.0 0.00 0.07 0.00 72 1005.3
20260508053207 44 283 3.0 5.0 0.00 0.07 0.00 72 1005.3
20260508051648 44 315 1.0 6.0 0.00 0.07 0.00 72 1005.3
20260508050130 45 359 2.0 5.0 0.00 0.07 0.00 70 1005.4
20260508044629 45 347 4.0 7.0 0.00 0.07 0.07 68 1005.4
20260508043129 45 343 2.0 4.0 0.00 0.07 0.07 70 1005.5
20260508041632 46 354 1.0 3.0 0.00 0.07 0.07 71 1005.7
20260508040133 46 318 3.0 11.0 0.00 0.07 0.07 70 1005.7
20260508034653 46 354 5.0 10.0 0.00 0.08 0.07 69 1005.6
20260508033153 47 342 6.0 13.0 0.00 0.08 0.07 69 1005.6
20260508031633 47 330 10.0 18.0 0.00 0.08 0.07 68 1005.4
20260508030136 47 348 6.0 12.0 0.00 0.08 0.07 68 1005.4
20260508024635 48 340 8.0 17.0 0.00 0.18 0.07 65 1005.3
20260508023135 48 314 8.0 20.0 0.00 0.18 0.07 66 1005.1
20260508021630 48 325 9.0 21.0 0.00 0.18 0.07 67 1005.2
20260508020130 49 317 11.0 17.0 0.00 0.18 0.07 69 1005.2
20260508014635 49 343 11.0 20.0 0.00 0.26 0.07 77 1005.4
20260508013135 48 354 8.0 14.0 0.00 0.26 0.07 83 1005.3
20260508011634 48 324 9.0 15.0 0.00 0.26 0.07 84 1005.1
20260508010133 49 354 10.0 13.0 0.00 0.26 0.07 83 1005.0
20260508004655 48 8 7.0 14.0 0.00 0.26 0.07 83 1004.7
20260508003134 47 335 8.0 12.0 0.00 0.26 0.07 86 1004.6
20260508001635 46 228 7.0 17.0 0.00 0.26 0.07 87 1003.9
20260508000134 46 253 11.0 17.0 0.00 0.26 0.07 86 1003.7
20260507234655 45 240 9.0 15.0 0.00 0.26 0.07 88 1003.7
20260507233138 45 211 10.0 16.0 0.00 0.26 0.07 88 1003.6
20260507231637 45 241 11.0 17.0 0.00 0.26 0.07 88 1003.5
20260507230136 45 236 9.0 15.0 0.00 0.26 0.07 87 1003.4
20260507224635 46 212 10.0 15.0 0.00 0.26 0.07 86 1003.3
20260507223139 46 228 9.0 19.0 0.00 0.26 0.07 87 1003.0
20260507221639 46 241 10.0 21.0 0.00 0.26 0.07 86 1003.1
20260507220139 46 240 11.0 18.0 0.00 0.26 0.07 87 1003.1
20260507214639 47 218 8.0 17.0 0.00 0.26 0.07 85 1003.3
20260507213200 48 213 12.0 19.0 0.00 0.26 0.07 84 1003.3
20260507211702 48 200 15.0 23.0 0.00 0.26 0.07 85 1003.2
20260507210143 48 227 15.0 22.0 0.00 0.26 0.07 85 1003.2
20260507204642 48 216 13.0 24.0 0.00 0.26 0.07 84 1003.1
20260507203142 48 237 14.0 24.0 0.00 0.26 0.07 84 1003.1
20260507201642 48 219 13.0 20.0 0.00 0.26 0.07 85 1003.2
20260507200147 48 216 13.0 20.0 0.00 0.26 0.07 85 1003.2
20260507194646 49 239 13.0 18.0 0.00 0.26 0.07 84 1003.2
20260507193144 48 246 12.0 20.0 0.00 0.26 0.07 85 1003.3
20260507191644 49 219 10.0 17.0 0.00 0.26 0.07 84 1003.2
20260507190147 49 207 11.0 19.0 0.00 0.26 0.07 84 1003.2
20260507184708 49 266 11.0 22.0 0.00 0.26 0.07 84 1003.4
20260507183148 49 208 8.0 18.0 0.00 0.26 0.07 87 1003.5
20260507181629 48 189 10.0 19.0 0.00 0.26 0.07 86 1003.6
20260507180210 49 196 8.0 16.0 0.00 0.26 0.07 87 1003.7
20260507174632 48 210 5.0 13.0 0.00 0.26 0.07 88 1003.7
20260507173134 48 188 10.0 15.0 0.00 0.26 0.07 86 1003.8
20260507171657 48 171 7.0 16.0 0.00 0.26 0.07 87 1003.7
20260507170134 49 245 6.0 11.0 0.00 0.26 0.07 87 1003.9
20260507164640 48 214 8.0 14.0 0.00 0.26 0.07 87 1004.1
20260507163139 49 196 6.0 11.0 0.00 0.26 0.07 87 1004.1
20260507161637 50 243 4.0 10.0 0.00 0.26 0.07 85 1004.1
20260507160139 49 220 6.0 11.0 0.00 0.26 0.07 85 1004.3
20260507154638 51 191 6.0 10.0 0.00 0.26 0.07 83 1004.6
20260507153141 51 201 5.0 8.0 0.00 0.26 0.07 81 1004.8
20260507151640 52 280 7.0 9.0 0.00 0.26 0.07 80 1005.0
20260507150140 52 285 4.0 9.0 0.00 0.26 0.07 83 1004.7
20260507144639 51 309 6.0 11.0 0.00 0.26 0.07 84 1004.7
20260507143142 51 319 7.0 10.0 0.00 0.26 0.07 84 1004.8
20260507141643 50 307 5.0 11.0 0.00 0.26 0.07 88 1005.2
20260507140142 49 328 7.0 12.0 0.00 0.26 0.07 90 1005.4
20260507134642 48 324 5.0 10.0 0.00 0.26 0.07 92 1005.3
20260507133147 47 270 2.0 9.0 0.00 0.26 0.07 92 1006.2
20260507131646 47 324 3.0 8.0 0.00 0.26 0.07 93 1005.3
20260507130206 47 323 2.0 8.0 0.00 0.26 0.07 93 1005.3
20260507124707 47 298 4.0 9.0 0.00 0.26 0.07 94 1005.8
20260507123147 46 12 4.0 9.0 0.00 0.26 0.07 94 1005.3
20260507121629 46 337 6.0 13.0 0.00 0.26 0.07 95 1005.1
20260507120130 46 313 5.0 11.0 0.00 0.26 0.07 95 1005.3
20260507114631 46 287 6.0 12.0 0.00 0.26 0.07 95 1005.7
20260507113152 46 322 5.0 10.0 0.00 0.26 0.07 95 1005.5
20260507111631 46 318 5.0 9.0 0.00 0.26 0.07 95 1005.7